Zurück zum Katalog

CZ-6A DEB

AktivSSO
NORAD 54995·DEBRIS·🇨🇳 China

Gestartet Nov 11, 2022 von Taiyuan Satellite Launch Center

Loading…

Nächste Überflüge (nächste 24 Stunden)

TLE

AktuellSource: Space-Track

Epoche: Sep 14, 2026, 02:41 UTC

1 54995U 22151UL  26257.11217394  .00004826  00000-0  95873-3 0  9998
2 54995  98.6313 321.4106 0068599  30.1646 330.3476 14.61151245131010

Verfolge CZ-6A DEB in Echtzeit mit AllMySat

Download on the App Store